• En España
  • Lista de países
  • Para 7 días
  • Temperatura del agua
  • Mapa Satelital
  • El tiempo en el mapa
  • Informadores
  • user-avatar
    Iniciar sesión

    Tiempo cada hora Prutz

    Hoy, 23 Julio, Lunes

    Tiempo Temperatura Precipitaciones Viento Presión Humedad
    00:00 +11°C° 0,3 mm 1 mps 634 mmHg 95%
    01:00 +11°C° 0 mm 1 mps 634 mmHg 96%
    02:00 +11°C° 0,3 mm 1 mps 634 mmHg 96%
    03:00 +11°C° 0,3 mm 1 mps 634 mmHg 96%
    04:00 +11°C° 0,3 mm 1 mps 634 mmHg 95%
    05:00 +11°C° 0,3 mm 1 mps 634 mmHg 94%
    06:00 +12°C° 0,3 mm 1 mps 635 mmHg 93%
    07:00 +12°C° 0 mm 2 mps 635 mmHg 93%
    08:00 +13°C° 0,2 mm 2 mps 635 mmHg 89%
    09:00 +15°C° 0,2 mm 2 mps 635 mmHg 84%
    10:00 +16°C° 0,2 mm 2 mps 636 mmHg 80%
    11:00 +17°C° 0,3 mm 2 mps 636 mmHg 75%
    12:00 +18°C° 0,3 mm 2 mps 636 mmHg 71%
    13:00 +19°C° 0,3 mm 3 mps 637 mmHg 66%
    14:00 +19°C° 0,4 mm 3 mps 637 mmHg 66%
    15:00 +19°C° 0,4 mm 3 mps 637 mmHg 66%
    16:00 +19°C° 0,4 mm 3 mps 637 mmHg 67%
    17:00 +18°C° 0,1 mm 2 mps 636 mmHg 71%
    18:00 +17°C° 0,1 mm 2 mps 636 mmHg 75%
    19:00 +16°C° 0,1 mm 2 mps 636 mmHg 80%
    20:00 +15°C° 0 mm 2 mps 636 mmHg 85%
    21:00 +13°C° 0 mm 1 mps 636 mmHg 90%
    22:00 +11°C° 0 mm 1 mps 635 mmHg 94%
    23:00 +11°C° 0 mm 1 mps 635 mmHg 93%

    Mañana, 24 Julio, Martes

    Tiempo Temperatura Precipitaciones Viento Presión Humedad
    00:00 +10°C° 0 mm 1 mps 635 mmHg 92%
    01:00 +10°C° 0 mm 1 mps 635 mmHg 91%
    02:00 +9°C° 0 mm 1 mps 634 mmHg 88%
    03:00 +9°C° 0 mm 1 mps 634 mmHg 86%
    04:00 +9°C° 0 mm 1 mps 634 mmHg 83%
    05:00 +11°C° 0 mm 1 mps 634 mmHg 77%
    06:00 +13°C° 0 mm 1 mps 635 mmHg 70%
    07:00 +15°C° 0 mm 1 mps 636 mmHg 64%
    08:00 +18°C° 0 mm 1 mps 636 mmHg 57%
    09:00 +20°C° 0 mm 1 mps 637 mmHg 50%
    10:00 +22°C° 0 mm 1 mps 637 mmHg 42%
    11:00 +23°C° 0 mm 1 mps 637 mmHg 41%
    12:00 +24°C° 0 mm 2 mps 637 mmHg 40%
    13:00 +24°C° 0 mm 2 mps 637 mmHg 39%
    14:00 +24°C° 0 mm 2 mps 637 mmHg 42%
    15:00 +24°C° 0 mm 2 mps 637 mmHg 44%
    16:00 +24°C° 0 mm 3 mps 636 mmHg 47%
    17:00 +21°C° 0,1 mm 2 mps 636 mmHg 56%
    18:00 +20°C° 0,1 mm 2 mps 636 mmHg 66%
    19:00 +19°C° 0,1 mm 2 mps 635 mmHg 75%
    20:00 +18°C° 0,1 mm 1 mps 635 mmHg 82%
    21:00 +15°C° 0,1 mm 1 mps 635 mmHg 88%
    22:00 +13°C° 0,1 mm 1 mps 634 mmHg 95%
    23:00 +13°C° 0,1 mm 1 mps 634 mmHg 95%

    Pasado mañana, 25 Julio, Miércoles

    Tiempo Temperatura Precipitaciones Viento Presión Humedad
    00:00 +12°C° 0,1 mm 1 mps 634 mmHg 96%
    01:00 +12°C° 0,1 mm 1 mps 634 mmHg 96%
    02:00 +12°C° 0 mm 1 mps 634 mmHg 96%
    03:00 +12°C° 0 mm 1 mps 634 mmHg 96%
    04:00 +12°C° 0 mm 1 mps 634 mmHg 96%
    05:00 +13°C° 0 mm 1 mps 635 mmHg 92%
    06:00 +14°C° 0 mm 1 mps 635 mmHg 89%
    07:00 +16°C° 0 mm 1 mps 636 mmHg 85%
    08:00 +18°C° 0 mm 1 mps 636 mmHg 73%
    09:00 +20°C° 0 mm 1 mps 637 mmHg 62%
    10:00 +21°C° 0 mm 2 mps 637 mmHg 50%
    11:00 +21°C° 0 mm 2 mps 637 mmHg 48%
    12:00 +23°C° 0 mm 2 mps 637 mmHg 45%
    13:00 +24°C° 0 mm 2 mps 637 mmHg 42%
    14:00 +24°C° 0 mm 2 mps 637 mmHg 45%
    15:00 +23°C° 0 mm 2 mps 637 mmHg 47%
    16:00 +22°C° 0 mm 3 mps 637 mmHg 49%
    17:00 +21°C° 0,1 mm 2 mps 637 mmHg 58%
    18:00 +20°C° 0,1 mm 2 mps 636 mmHg 66%
    19:00 +18°C° 0,1 mm 2 mps 636 mmHg 74%
    20:00 +17°C° 0,1 mm 2 mps 636 mmHg 81%
    21:00 +15°C° 0,1 mm 1 mps 636 mmHg 87%
    22:00 +13°C° 0,1 mm 1 mps 635 mmHg 93%
    23:00 +13°C° 0 mm 1 mps 635 mmHg 94%

    26 Julio, Jueves

    Tiempo Temperatura Precipitaciones Viento Presión Humedad
    00:00 +12°C° 0 mm 1 mps 635 mmHg 94%
    01:00 +12°C° 0 mm 1 mps 635 mmHg 94%
    02:00 +12°C° 0 mm 1 mps 635 mmHg 94%
    03:00 +12°C° 0 mm 1 mps 635 mmHg 93%
    04:00 +11°C° 0 mm 1 mps 635 mmHg 93%
    05:00 +13°C° 0 mm 1 mps 635 mmHg 86%
    06:00 +15°C° 0 mm 1 mps 636 mmHg 79%
    07:00 +16°C° 0 mm 1 mps 636 mmHg 73%
    08:00 +19°C° 0 mm 1 mps 637 mmHg 64%
    09:00 +21°C° 0 mm 1 mps 637 mmHg 55%
    10:00 +23°C° 0 mm 1 mps 638 mmHg 46%
    11:00 +23°C° 0,1 mm 2 mps 638 mmHg 45%
    12:00 +24°C° 0,1 mm 2 mps 638 mmHg 43%
    13:00 +25°C° 0,1 mm 2 mps 637 mmHg 42%
    14:00 +25°C° 0,2 mm 2 mps 637 mmHg 44%
    15:00 +24°C° 0,2 mm 2 mps 637 mmHg 47%
    16:00 +24°C° 0,2 mm 3 mps 637 mmHg 50%
    17:00 +23°C° 0,3 mm 2 mps 637 mmHg 59%
    18:00 +20°C° 0,3 mm 2 mps 636 mmHg 69%
    19:00 +19°C° 0,3 mm 2 mps 636 mmHg 78%
    20:00 +18°C° 0,2 mm 1 mps 636 mmHg 84%
    21:00 +16°C° 0,2 mm 1 mps 635 mmHg 89%
    22:00 +14°C° 0,2 mm 1 mps 635 mmHg 95%
    23:00 +14°C° 0 mm 1 mps 635 mmHg 95%

    27 Julio, Viernes

    Tiempo Temperatura Precipitaciones Viento Presión Humedad
    00:00 +13°C° 0 mm 1 mps 635 mmHg 95%
    01:00 +13°C° 0 mm 1 mps 635 mmHg 95%
    02:00 +13°C° 0 mm 1 mps 634 mmHg 95%
    03:00 +12°C° 0 mm 1 mps 634 mmHg 95%
    04:00 +12°C° 0 mm 1 mps 634 mmHg 95%
    05:00 +13°C° 0 mm 1 mps 634 mmHg 92%
    06:00 +15°C° 0 mm 1 mps 635 mmHg 88%
    07:00 +16°C° 0 mm 1 mps 636 mmHg 85%
    08:00 +19°C° 0 mm 1 mps 636 mmHg 74%
    09:00 +21°C° 0 mm 1 mps 637 mmHg 63%
    10:00 +23°C° 0 mm 1 mps 637 mmHg 52%
    11:00 +23°C° 0 mm 2 mps 637 mmHg 48%
    12:00 +24°C° 0 mm 2 mps 637 mmHg 45%
    13:00 +25°C° 0 mm 2 mps 637 mmHg 41%
    14:00 +25°C° 0,1 mm 2 mps 637 mmHg 44%
    15:00 +24°C° 0,1 mm 2 mps 637 mmHg 47%
    16:00 +24°C° 0,1 mm 3 mps 637 mmHg 49%
    17:00 +21°C° 0,4 mm 2 mps 636 mmHg 59%
    18:00 +20°C° 0,4 mm 2 mps 636 mmHg 69%
    19:00 +19°C° 0,4 mm 2 mps 636 mmHg 78%
    20:00 +17°C° 0,2 mm 2 mps 636 mmHg 83%
    21:00 +15°C° 0,2 mm 1 mps 635 mmHg 88%
    22:00 +14°C° 0,2 mm 1 mps 635 mmHg 93%
    23:00 +13°C° 0 mm 1 mps 635 mmHg 94%

    28 Julio, Sábado

    Tiempo Temperatura Precipitaciones Viento Presión Humedad
    00:00 +13°C° 0 mm 1 mps 635 mmHg 94%
    01:00 +13°C° 0 mm 1 mps 635 mmHg 94%
    02:00 +12°C° 0 mm 1 mps 635 mmHg 94%
    03:00 +12°C° 0 mm 1 mps 634 mmHg 93%
    04:00 +12°C° 0 mm 1 mps 634 mmHg 93%
    05:00 +13°C° 0 mm 1 mps 635 mmHg 88%
    06:00 +14°C° 0 mm 1 mps 635 mmHg 84%
    07:00 +16°C° 0 mm 1 mps 636 mmHg 79%
    08:00 +18°C° 0,1 mm 2 mps 636 mmHg 71%
    09:00 +19°C° 0,1 mm 2 mps 637 mmHg 64%
    10:00 +21°C° 0,1 mm 2 mps 637 mmHg 56%
    11:00 +23°C° 0,2 mm 2 mps 637 mmHg 54%
    12:00 +23°C° 0,2 mm 2 mps 637 mmHg 52%
    13:00 +24°C° 0,2 mm 2 mps 637 mmHg 50%
    14:00 +23°C° 0,6 mm 2 mps 637 mmHg 55%
    15:00 +23°C° 0,6 mm 2 mps 637 mmHg 59%
    16:00 +21°C° 0,6 mm 2 mps 637 mmHg 63%
    17:00 +20°C° 0,5 mm 2 mps 636 mmHg 69%
    18:00 +19°C° 0,5 mm 2 mps 636 mmHg 76%
    19:00 +18°C° 0,5 mm 2 mps 636 mmHg 82%
    20:00 +16°C° 0,1 mm 2 mps 636 mmHg 86%
    21:00 +15°C° 0,1 mm 1 mps 636 mmHg 90%
    22:00 +14°C° 0,1 mm 1 mps 636 mmHg 94%
    23:00 +13°C° 0 mm 1 mps 635 mmHg 94%
    Mostrar más